Time,TemperatureF,DewpointF,PressureIn,WindDirection,WindDirectionDegrees,WindSpeedMPH,WindSpeedGustMPH,Humidity,HourlyPrecipIn,Conditions,Clouds,dailyrainin,SoftwareType,DateUTC
2013-01-16 00:10:00,30.7,30.2,30.07,NNE,22,2.7,-999.0,98,-99.99,,,0.00,Acu-Link.com,2013-01-16 05:10:00,
2013-01-16 00:25:00,30.6,30.1,30.07,NNE,22,2.7,-999.0,98,-99.99,,,0.00,Acu-Link.com,2013-01-16 05:25:00,
2013-01-16 00:40:00,30.4,29.9,30.07,NE,45,1.7,-999.0,98,-99.99,,,0.00,Acu-Link.com,2013-01-16 05:40:00,
2013-01-16 00:55:00,30.2,29.7,30.06,ESE,112,1.1,-999.0,98,-99.99,,,0.00,Acu-Link.com,2013-01-16 05:55:00,
2013-01-16 01:10:00,30.2,29.7,30.06,ENE,67,1.7,-999.0,98,-99.99,,,0.00,Acu-Link.com,2013-01-16 06:10:00,
2013-01-16 01:25:00,30.0,29.5,30.06,NNE,22,1.7,-999.0,98,-99.99,,,0.00,Acu-Link.com,2013-01-16 06:25:00,
2013-01-16 01:40:00,30.0,29.5,30.05,East,90,2.2,-999.0,98,-99.99,,,0.00,Acu-Link.com,2013-01-16 06:40:00,
2013-01-16 01:55:00,30.0,29.5,30.05,NNE,22,3.2,-999.0,98,-99.99,,,0.00,Acu-Link.com,2013-01-16 06:55:00,
2013-01-16 02:10:00,30.0,29.5,30.04,ENE,67,0.0,-999.0,98,-99.99,,,0.00,Acu-Link.com,2013-01-16 07:10:00,
2013-01-16 02:26:00,30.0,29.5,30.03,NE,45,2.2,-999.0,98,-99.99,,,0.00,Acu-Link.com,2013-01-16 07:26:00,
2013-01-16 02:41:00,29.8,29.3,30.01,NNE,22,2.2,-999.0,98,-99.99,,,0.00,Acu-Link.com,2013-01-16 07:41:00,
2013-01-16 02:56:00,29.8,29.3,30.02,NE,45,0.0,-999.0,98,-99.99,,,0.00,Acu-Link.com,2013-01-16 07:56:00,
2013-01-16 03:11:00,29.8,29.3,30.01,NE,45,0.0,-999.0,98,-99.99,,,0.00,Acu-Link.com,2013-01-16 08:11:00,
2013-01-16 03:26:00,29.8,29.3,30.01,ESE,112,0.0,-999.0,98,-99.99,,,0.00,Acu-Link.com,2013-01-16 08:26:00,
2013-01-16 03:41:00,29.8,29.3,30.01,NNE,22,0.0,-999.0,98,-99.99,,,0.00,Acu-Link.com,2013-01-16 08:41:00,
2013-01-16 03:56:00,29.7,29.2,30.00,NNE,22,0.0,-999.0,98,-99.99,,,0.00,Acu-Link.com,2013-01-16 08:56:00,
2013-01-16 04:22:00,29.7,29.2,30.00,NW,315,0.0,-999.0,98,-99.99,,,0.00,Acu-Link.com,2013-01-16 09:22:00,
2013-01-16 04:37:00,29.7,29.2,29.98,ESE,112,0.0,-999.0,98,-99.99,,,0.00,Acu-Link.com,2013-01-16 09:37:00,
2013-01-16 04:53:00,29.7,29.2,29.96,ESE,112,0.0,-999.0,98,-99.99,,,0.00,Acu-Link.com,2013-01-16 09:53:00,
2013-01-16 05:08:00,29.5,29.0,29.96,NNE,22,0.0,-999.0,98,-99.99,,,0.00,Acu-Link.com,2013-01-16 10:08:00,
2013-01-16 05:23:00,29.5,29.0,29.96,West,270,0.0,-999.0,98,-99.99,,,0.00,Acu-Link.com,2013-01-16 10:23:00,
2013-01-16 05:38:00,29.5,29.0,29.97,NNW,337,0.0,-999.0,98,-99.99,,,0.00,Acu-Link.com,2013-01-16 10:38:00,
2013-01-16 05:53:00,29.5,29.0,29.94,East,90,0.0,-999.0,98,-99.99,,,0.00,Acu-Link.com,2013-01-16 10:53:00,
2013-01-16 06:08:00,29.5,29.0,29.94,NE,45,0.0,-999.0,98,-99.99,,,0.00,Acu-Link.com,2013-01-16 11:08:00,
2013-01-16 06:23:00,29.5,29.0,29.93,NE,45,0.0,-999.0,98,-99.99,,,0.00,Acu-Link.com,2013-01-16 11:23:00,
2013-01-16 06:38:00,29.7,29.2,29.93,ENE,67,0.0,-999.0,98,-99.99,,,0.00,Acu-Link.com,2013-01-16 11:38:00,
2013-01-16 06:53:00,29.7,29.2,29.93,ESE,112,0.0,-999.0,98,-99.99,,,0.00,Acu-Link.com,2013-01-16 11:53:00,
2013-01-16 07:09:00,29.7,29.2,29.92,ESE,112,0.0,-999.0,98,-99.99,,,0.00,Acu-Link.com,2013-01-16 12:09:00,
2013-01-16 07:24:00,29.7,29.2,29.90,ESE,112,0.0,-999.0,98,-99.99,,,0.00,Acu-Link.com,2013-01-16 12:24:00,
2013-01-16 07:39:00,29.7,29.2,29.90,NE,45,0.0,-999.0,98,-99.99,,,0.00,Acu-Link.com,2013-01-16 12:39:00,
2013-01-16 07:54:00,29.7,29.2,29.89,NNE,22,0.0,-999.0,98,-99.99,,,0.00,Acu-Link.com,2013-01-16 12:54:00,
2013-01-16 08:09:00,30.0,29.5,29.90,NW,315,0.0,-999.0,98,-99.99,,,0.00,Acu-Link.com,2013-01-16 13:09:00,
2013-01-16 08:24:00,30.4,29.9,29.90,ESE,112,0.0,-999.0,98,-99.99,,,0.00,Acu-Link.com,2013-01-16 13:24:00,
2013-01-16 08:40:00,30.7,30.2,29.91,West,270,0.0,-999.0,98,-99.99,,,0.00,Acu-Link.com,2013-01-16 13:40:00,
2013-01-16 08:55:00,31.3,30.8,29.91,ESE,112,0.0,-999.0,98,-99.99,,,0.00,Acu-Link.com,2013-01-16 13:55:00,
2013-01-16 09:10:00,31.8,31.3,29.87,SSE,157,0.0,-999.0,98,-99.99,,,0.00,Acu-Link.com,2013-01-16 14:10:00,
2013-01-16 09:25:00,32.0,31.5,29.89,NNW,337,0.0,-999.0,98,-99.99,,,0.00,Acu-Link.com,2013-01-16 14:25:00,
2013-01-16 09:40:00,32.0,31.5,29.90,NNE,22,0.0,-999.0,98,-99.99,,,0.00,Acu-Link.com,2013-01-16 14:40:00,
2013-01-16 09:55:00,32.0,31.5,29.90,East,90,0.0,-999.0,98,-99.99,,,0.00,Acu-Link.com,2013-01-16 14:55:00,
2013-01-16 10:10:00,32.4,31.9,29.89,NW,315,0.0,-999.0,98,-99.99,,,0.00,Acu-Link.com,2013-01-16 15:10:00,
2013-01-16 10:26:00,32.4,31.9,29.87,East,90,0.0,-999.0,98,-99.99,,,0.00,Acu-Link.com,2013-01-16 15:26:00,
2013-01-16 10:41:00,32.7,32.2,29.87,NNE,22,0.0,-999.0,98,-99.99,,,0.00,Acu-Link.com,2013-01-16 15:41:00,
2013-01-16 10:56:00,32.7,32.2,29.85,ESE,112,0.0,-999.0,98,-99.99,,,0.00,Acu-Link.com,2013-01-16 15:56:00,
2013-01-16 11:11:00,33.4,32.9,29.84,ESE,112,0.0,-999.0,98,-99.99,,,0.00,Acu-Link.com,2013-01-16 16:11:00,
2013-01-16 11:26:00,33.8,33.3,29.80,NE,45,0.0,-999.0,98,-99.99,,,0.00,Acu-Link.com,2013-01-16 16:26:00,
2013-01-16 11:41:00,33.8,33.3,29.78,NNE,22,0.0,-999.0,98,-99.99,,,0.00,Acu-Link.com,2013-01-16 16:41:00,
2013-01-16 11:56:00,34.5,33.7,29.81,North,0,0.0,-999.0,97,-99.99,,,0.00,Acu-Link.com,2013-01-16 16:56:00,
2013-01-16 12:11:00,35.1,34.6,29.78,NE,45,0.0,-999.0,98,-99.99,,,0.00,Acu-Link.com,2013-01-16 17:11:00,
2013-01-16 12:26:00,36.0,35.5,29.79,West,270,0.0,-999.0,98,-99.99,,,0.00,Acu-Link.com,2013-01-16 17:26:00,
2013-01-16 12:42:00,37.0,36.0,29.79,West,270,0.0,-999.0,96,-99.99,,,0.00,Acu-Link.com,2013-01-16 17:42:00,
2013-01-16 12:57:00,37.2,35.1,29.77,ESE,112,0.0,-999.0,92,-99.99,,,0.00,Acu-Link.com,2013-01-16 17:57:00,
2013-01-16 13:12:00,37.0,35.2,29.77,NNW,337,0.0,-999.0,93,-99.99,,,0.00,Acu-Link.com,2013-01-16 18:12:00,
2013-01-16 13:27:00,36.7,34.3,29.77,ESE,112,0.0,-999.0,91,-99.99,,,0.00,Acu-Link.com,2013-01-16 18:27:00,
2013-01-16 13:42:00,36.3,34.5,29.77,South,180,0.0,-999.0,93,-99.99,,,0.00,Acu-Link.com,2013-01-16 18:42:00,
2013-01-16 13:57:00,36.5,34.9,29.76,SSW,202,0.0,-999.0,94,-99.99,,,0.00,Acu-Link.com,2013-01-16 18:57:00,
2013-01-16 14:13:00,36.3,34.5,29.77,SSE,157,0.0,-999.0,93,-99.99,,,0.00,Acu-Link.com,2013-01-16 19:13:00,
2013-01-16 14:28:00,36.9,34.8,29.78,SSW,202,0.0,-999.0,92,-99.99,,,0.00,Acu-Link.com,2013-01-16 19:28:00,
2013-01-16 14:43:00,37.9,35.2,29.77,West,270,0.0,-999.0,90,-99.99,,,0.00,Acu-Link.com,2013-01-16 19:43:00,
2013-01-16 14:58:00,36.7,34.6,29.76,ESE,112,1.1,-999.0,92,-99.99,,,0.00,Acu-Link.com,2013-01-16 19:58:00,
2013-01-16 15:14:00,37.0,34.9,29.76,SW,225,0.0,-999.0,92,-99.99,,,0.00,Acu-Link.com,2013-01-16 20:14:00,
2013-01-16 15:29:00,37.4,35.3,29.76,West,270,0.0,-999.0,92,-99.99,,,0.00,Acu-Link.com,2013-01-16 20:29:00,
2013-01-16 15:44:00,37.8,35.4,29.76,ESE,112,1.1,-999.0,91,-99.99,,,0.00,Acu-Link.com,2013-01-16 20:44:00,
2013-01-16 15:59:00,37.0,34.9,29.76,ESE,112,0.0,-999.0,92,-99.99,,,0.00,Acu-Link.com,2013-01-16 20:59:00,
2013-01-16 16:14:00,36.3,34.7,29.78,SSE,157,0.0,-999.0,94,-99.99,,,0.00,Acu-Link.com,2013-01-16 21:14:00,
2013-01-16 16:29:00,35.4,34.1,29.78,ENE,67,0.0,-999.0,95,-99.99,,,0.00,Acu-Link.com,2013-01-16 21:29:00,
2013-01-16 16:44:00,34.7,33.9,29.78,WNW,292,0.0,-999.0,97,-99.99,,,0.00,Acu-Link.com,2013-01-16 21:44:00,
2013-01-16 16:59:00,34.0,33.5,29.79,SSW,202,0.0,-999.0,98,-99.99,,,0.01,Acu-Link.com,2013-01-16 21:59:00,
2013-01-16 17:14:00,33.3,32.8,29.79,SSE,157,0.0,-999.0,98,-99.99,,,0.02,Acu-Link.com,2013-01-16 22:14:00,
2013-01-16 17:30:00,33.3,32.8,29.79,ENE,67,0.0,-999.0,98,-99.99,,,0.04,Acu-Link.com,2013-01-16 22:30:00,
2013-01-16 17:45:00,33.1,32.6,29.80,ENE,67,0.0,-999.0,98,-99.99,,,0.05,Acu-Link.com,2013-01-16 22:45:00,
2013-01-16 18:00:00,32.9,32.4,29.79,SSE,157,0.0,-999.0,98,-99.99,,,0.06,Acu-Link.com,2013-01-16 23:00:00,
2013-01-16 18:15:00,32.9,32.4,29.81,NE,45,0.0,-999.0,98,-99.99,,,0.07,Acu-Link.com,2013-01-16 23:15:00,
2013-01-16 18:30:00,32.7,32.2,29.81,West,270,0.0,-999.0,98,-99.99,,,0.07,Acu-Link.com,2013-01-16 23:30:00,
2013-01-16 18:45:00,32.5,32.0,29.81,West,270,0.0,-999.0,98,-99.99,,,0.08,Acu-Link.com,2013-01-16 23:45:00,
2013-01-16 19:00:00,32.2,31.7,29.82,West,270,0.0,-999.0,98,-99.99,,,0.08,Acu-Link.com,2013-01-17 00:00:00,
2013-01-16 19:15:00,32.0,31.5,29.82,West,270,0.0,-999.0,98,-99.99,,,0.09,Acu-Link.com,2013-01-17 00:15:00,
2013-01-16 19:30:00,32.0,31.5,29.81,SSW,202,0.0,-999.0,98,-99.99,,,0.09,Acu-Link.com,2013-01-17 00:30:00,
2013-01-16 19:46:00,31.6,31.1,29.82,West,270,0.0,-999.0,98,-99.99,,,0.10,Acu-Link.com,2013-01-17 00:46:00,
2013-01-16 20:01:00,31.3,30.8,29.81,West,270,0.0,-999.0,98,-99.99,,,0.10,Acu-Link.com,2013-01-17 01:01:00,
2013-01-16 20:16:00,31.3,30.8,29.81,NW,315,0.0,-999.0,98,-99.99,,,0.10,Acu-Link.com,2013-01-17 01:16:00,
2013-01-16 20:31:00,30.9,30.4,29.81,NW,315,0.0,-999.0,98,-99.99,,,0.10,Acu-Link.com,2013-01-17 01:31:00,
2013-01-16 20:46:00,30.6,30.1,29.81,North,0,0.0,-999.0,98,-99.99,,,0.11,Acu-Link.com,2013-01-17 01:46:00,
2013-01-16 21:01:00,29.8,29.3,29.81,NW,315,0.0,-999.0,98,-99.99,,,0.11,Acu-Link.com,2013-01-17 02:01:00,
2013-01-16 21:17:00,29.5,29.0,29.81,East,90,0.0,-999.0,98,-99.99,,,0.11,Acu-Link.com,2013-01-17 02:17:00,
2013-01-16 21:32:00,29.1,28.6,29.80,NW,315,0.0,-999.0,98,-99.99,,,0.11,Acu-Link.com,2013-01-17 02:32:00,
2013-01-16 21:47:00,28.6,28.1,29.81,East,90,0.0,-999.0,98,-99.99,,,0.11,Acu-Link.com,2013-01-17 02:47:00,
2013-01-16 22:02:00,28.0,27.5,29.81,ENE,67,0.0,-999.0,98,-99.99,,,0.11,Acu-Link.com,2013-01-17 03:02:00,
2013-01-16 22:17:00,27.7,27.2,29.81,ENE,67,0.0,-999.0,98,-99.99,,,0.11,Acu-Link.com,2013-01-17 03:17:00,
2013-01-16 22:32:00,27.7,27.2,29.82,ENE,67,0.0,-999.0,98,-99.99,,,0.11,Acu-Link.com,2013-01-17 03:32:00,
2013-01-16 22:47:00,27.5,27.0,29.81,NNW,337,0.0,-999.0,98,-99.99,,,0.11,Acu-Link.com,2013-01-17 03:47:00,
2013-01-16 23:02:00,27.3,26.8,29.82,WNW,292,0.0,-999.0,98,-99.99,,,0.11,Acu-Link.com,2013-01-17 04:02:00,
2013-01-16 23:17:00,27.3,26.8,29.82,NW,315,0.0,-999.0,98,-99.99,,,0.11,Acu-Link.com,2013-01-17 04:17:00,
2013-01-16 23:32:00,27.0,26.5,29.82,NE,45,0.0,-999.0,98,-99.99,,,0.11,Acu-Link.com,2013-01-17 04:32:00,
2013-01-16 23:48:00,27.0,26.5,29.82,NE,45,0.0,-999.0,98,-99.99,,,0.11,Acu-Link.com,2013-01-17 04:48:00,